Home   Weather   Tofol   Past weeks

Flag for Micronesia Past Weather in Tofol, Kosrae, Micronesia — Yesterday and Last 2 Weeks

Now
83 °F

Mostly cloudy.


Feels Like: 92 °F
Forecast: 81 / 85 °F
Wind: 13 mph from East

Location: Pohnpei

Current Time: Apr 30, 2017 at 10:38:03 am

Latest Report: Apr 30, 2017 at 9:52 am


Visibility: 15 mi

Pressure: 29.91 "Hg

Humidity: 79%

Dew Point: 76 °F

Location of TofolLocation

Past Weather in Tofol — Graph

°F

Tofol Temperature Yesterday

Maximum temperature yesterday: 88 °F (at 12:54 pm)
Minimum temperature yesterday: 81 °F (at 5:52 am)
Average temperature yesterday: 84 °F

High & Low Weather Summary for the Past Weeks

 TemperatureHumidityPressure
High91 °F (Apr 27, 12:50 pm)99% (Apr 20, 4:54 pm)29.97 "Hg (Apr 20, 4:54 pm)
Low74 °F (Apr 21, 5:54 am)57% (Apr 23, 3:53 pm)29.78 "Hg (Apr 16, 3:52 pm)
Average82 °F82%29.86 "Hg
* Reported Apr 15 9:52 am — Apr 30 9:07 am, Tofol, Weather by CustomWeather, © 2017

Note: Actual official high and low records may vary slightly from our data, if they occured in-between our weather recording intervals... More about our weather records

Advertising

Tofol Weather History for the Previous 24 Hours

Scroll right to see more
 ConditionsComfort  
Time TempWeatherWind HumidityBarometerVisibility
9:07 am
Sun, Apr 30
82 °FSprinkles. Mostly cloudy.9 mph84%29.92 "Hg12 mi
7:53 am82 °FCloudy.6 mph84%29.91 "Hg15 mi
6:53 am80 °FCloudy.8 mph86%29.88 "Hg15 mi
5:53 am82 °FOvercast.9 mph79%29.86 "Hg15 mi
3:54 am82 °FPartly cloudy.7 mph79%29.83 "Hg15 mi
2:52 am83 °FPartly cloudy.5 mph76%29.83 "Hg15 mi
1:53 am83 °FMostly cloudy.13 mph76%29.84 "Hg15 mi
12:53 am83 °FMostly cloudy.9 mph76%29.87 "Hg15 mi
11:55 pm
Sat, Apr 29
83 °FPartly cloudy.9 mph77%29.88 "Hg15 mi
10:50 pm83 °FPartly cloudy.9 mph78%29.89 "Hg15 mi
6:50 pm84 °FMostly cloudy.14 mph77%29.85 "Hg15 mi
5:50 pm84 °FMore clouds than sun.7 mph76%29.84 "Hg15 mi
4:50 pm85 °FCloudy.12 mph74%29.82 "Hg15 mi
3:51 pm85 °FMore clouds than sun.12 mph72%29.82 "Hg15 mi
2:52 pm86 °FBroken clouds.14 mph70%29.83 "Hg15 mi
1:53 pm87 °FMore clouds than sun.7 mph73%29.85 "Hg15 mi
12:54 pm88 °FMore clouds than sun.12 mph65%29.88 "Hg15 mi
11:51 am86 °FCloudy.6 mph72%29.90 "Hg15 mi
10:53 am85 °FCloudy.10 mph73%29.91 "Hg15 mi
Weather by CustomWeather, © 2017

See weather overviewHow to use our weather pages